Погода в Кутаиси

Погода в Кутаиси : погода сейчас, прогноз погоды и архив. Всё, что Вы хотите узнать о погоде в Кутаиси!

Поиск расширенной информации на нашем сайте:

Другие новости

Новости СМИ2

Главная страница сайта

Новости сайта

02.10.2013

Напоминаем, что на нашем новом сайте вы можете получить высокодетализированные прогнозы погоды по пунктам России, СНГ и мира (включающие важные для авиации метеовеличины, такие как направление и скорость ветра, видимость, явления погоды, количество и форма облачности, нижняя и верхняя граница облачности), а также ознакомиться с разнообразными материалами по авиационной метеорологии и подборкой полезных ссылок на эту тему.

Сайт Метеоцентр.Азия посвящён разработке технологий оптимизации авиаметеорологического обслуживания, включая проектирование и перспективное создание нескольких автоматизированных авиаметеорологических систем:
- система выпуска высокодетальных прогностических карт явлений погоды для нижнего воздушного пространства по России и ближнему зарубежью;
- система верификации прогнозов TAF (выпускаемых синоптиками официальных АМСГ РФ и ближнего зарубежья) и AUTOTAF (выпускаемых сайтом Метеоцентр.Азия) - выявление ошибок, онлайн-сопоставление с фактической погодой METAR, автоматическое внесение коррективов в прогнозы при резком отклонении фактической погоды от прогноза, подсчёт оправдываемости прогнозов по элементам и в целом;
- система обработки, анализа и отображения авиаметеорологической информации для применения провайдерами метеорологической информации.

Рекомендуем: Киноманы могут смотреть ужасы онлайн бесплатно в хорошем качестве

Погода в Кутаиси - сегодня

Время (UTC), дата Ветер
(°,м/с) 
Видим.   Явления Облачность Т
(°С)
Тd
(°С)
f(%) Тe
(°С)
Pmin
(гПа)
dP
(гПа)
Po
(мм)
O2
(г/м3)
Тmin Tmax R s Состояние
почвы
09 20.03.17 240 (ЮЗ) 10  10 км  слаб. ливневой дождь  10/8 600 м кучево-дожд., средняя 
[Cb cap|As op]
+9.6 +8 90 +7  1010.7  3.3  748  290           
21 20.03.17 270 (З) 10 км  {ливн. осадки}  10/6 600 м средняя 
[Sc|As op]
+3.6 +2.9 95 +4  1017  -0.4  752  299           
00 21.03.17 270 (З) 10 км  {ливн. осадки}  10/6 1000 м средняя 
[Sc|As op]
+3.4 +2.4 93 +3  1016.5  -0.5  752  299           
03 21.03.17 тихо ()   10 км    4/4 1000 м 
[Sc]
+1.4 +0.6 94 +1  1015.8  -0.8  751  301         
09 21.03.17 270 (З) 20000 м  в посл. час ливневой дождь  9/6 1000 м средняя 
[Sc|Ac trans]
+6 +2.6 79 +6  1017.8  753  296           
12 21.03.17 320 (СЗ) 20000 м  {ливн. осадки}  9/6 1000 м средняя 
[Sc|Ac trans]
+7.4 +1.5 66 +6  1019.2  1.5  754  296           
21 21.03.17 тихо ()   10 км    9/6 1000 м средняя 
[Sc|Ac trans]
+5.2 +3.8 91 +5  1020  -0.6  754  298           
00 22.03.17 тихо ()   10 км    6/0 средняя 
[Ac trans]
+3 +2 93 +3  1019.6  -0.5  754  300           
06 22.03.17 090 (В) 20000 м    8/0 средняя 
[Ac trans]
+6 +2.1 76 +6  1020.9  1.4  755  297  +2.2         
09 22.03.17 240 (ЮЗ) 20000 м    6/0 средняя 
[Ac trans]
+10.8 +0.2 48 +10  1020.5  -0.2  755  293           
12 22.03.17 270 (З) 20000 м    8/0 средняя 
[Ac trans]
+11.6 +1.7 51 +11  1020.3  -0.1  755  291           
21 22.03.17 060 (СВ) 10 км    4/3 1500 м средняя 
[Sc|Ac trans]
+3.2 +1.9 91 +3  1023.1  0.6  757  301           
00 23.03.17 090 (В) 10 км    3/3 1500 м средняя 
[Sc|Ac trans]
+2 +0.7 91 +1  1023.1  757  303           
03 23.03.17 090 (В) 20000 м    3/3 1500 м 
[Sc]
+1.3 -0.1 90 +1  1023.1  -0.1  756  303           
06 23.03.17 090 (В) 20000 м    3/3 1500 м 
[Cu hum]
+7.4 +2.3 70 +7  1023.1  0.4  757  297  +1.2         
09 23.03.17 270 (З) 20000 м    3/3 1500 м 
[Cu hum]
+11 +0.6 49 +11  1022.7  -0.3  757  293           
12 23.03.17 270 (З) 20000 м    3/3 1500 м 
[Cu hum]
+13.2 +0.6 42 +13  1021.8  -0.8  756  290           
15 23.03.17 270 (З) 20000 м    3/3 1500 м 
[Sc]
+11.2 +1.7 52 +10  1022.9  1.1  757  293    +13.6       
18 23.03.17 240 (ЮЗ) 10 км    3/3 1500 м средняя 
[Sc|Ac trans]
+5.2 +2 80 +4  1025.9  2.6  759  300    +13.6       
21 23.03.17 090 (В) 10 км    6/3 1500 м средняя 
[Sc|Ac trans]
+4.2 +3 92 +5  1026.9  0.9  759  301           
00 24.03.17 090 (В) 10 км    3/3 1500 м средняя 
[Sc|Ac trans]
+3.4 +2.4 93 +3  1026.5  -0.4  759  302           
09 24.03.17 270 (З) 20000 м    3/0 средняя 
[Ac trans]
+11.2 +4.1 62 +11  1025.8  -0.9  759  293           
12 24.03.17 240 (ЮЗ) 20000 м    3/0 средняя 
[Ac trans]
+14 +4.3 52 +14  1024.3  -1.4  758  290           
18 24.03.17 270 (З) 10 км    ясно 
+7 +4 81 +7  1024.7  0.3  758  297    +14.6       
21 24.03.17 тихо ()   10 км    ясно 
+5 +3.3 89 +5  1024.6  -0.2  758  299           
Время (UTC), дата Ветер
(°,м/с) 
Видим.   Явления Облачность Т
(°С)
Тd
(°С)
f(%) Тe
(°С)
Pmin
(гПа)
dP
(гПа)
Po
(мм)
O2
(г/м3)
Тmin Tmax R s Состояние
почвы

Для получения пояснительной информации подведите курсор к названию столбца.

ПОГОДА в Кутаиси - архив

Всё, что Вы хотите узнать о погоде в Кутаиси - удобно и подробно!

Выберите нужную дату (начиная с 1 января 2015* года) и нажмите кнопку "Найти".
Будут отображены архивные сводки погоды по пункту Кутаиси, начиная с указанной даты.


Отображать данные в формате CSV (для использования в таблицах Excel)


Внимание! Наш архив погоды предназначен исключительно для личного некоммерческого использования в познавательных целях. Если Вам необходимы официальные справки о состоянии погоды (для производственных, юридических, коммерческих и т.п. целей), обращайтесь в органы Росгидромета.

*Примечание: данная дата относится к архиву по метеостанциям СССР (Россия, СНГ, Балтия).
Архив по метеостанциям Зарубежной Европы и Азии (кроме Китая) хранится 10 дней, по другим регионам земного шара (Китай, Африка, Америка, Австралия, Океания) - 1 день.

Кутаиси - район местоположения метеостанции


Название, широта, долгота, высота метеостанции:
Кутаиси 42.3°ш. 42.6°д. 116 м над ур. моря [Грузия]

Дополнительная информация

В oтличие oт бoльшинства пoгoдных сайтoв мы публикуем пoдрoбную метеoинфoрмацию в детальнoм прoфессиoнальнoм фoрмате.

Характеристики температуры и влажнoсти вoздуха измеряются на высoте 2 м в тени вдали oт зданий и деревьев.
Скoрoсть ветра измеряется на высoте 10 м (на урoвне рoста челoвека скoрoсть ветра ниже в 1.5-2 раза). Если метеoстанция нахoдится в гoрoде или в лесу, тo скoрoсть ветра занижена на 2-4 м/с пo сравнению с oткрытым местoм. Скoрoсть ветра над акватoриями крупных рек и oзёр, а также на вершинах хoлмoв на 2-5 м/с выше, чем в oбычных услoвиях.
Атмoсфернoе давление в разных тoчках местнoсти мoжет значительнo oтличаться oт давления на метеoстанции, в зависимoсти oт услoвий рельефа (при пoдъёме на 10 м давление пoнижается примернo на 1 мм рт.ст.).